カタログに戻る

COSMOS 619

運用中軍事LEO
NORAD 6987·PAYLOAD·🇷🇺 Russia

打ち上げ Dec 19, 1973 から Plesetsk Cosmodrome

Loading…

次のパス (今後24時間)

TLE

最新Source: Space-Track

元期: Sep 14, 2026, 06:29 UTC

1 06987U 73104C   26257.27056632 -.00000012  00000-0  26486-4 0  9992
2 06987  74.0264 104.1093 0040929 215.7698 144.0611 12.52234793410746

AllMySatでCOSMOS 619をリアルタイム追跡

Download on the App Store